Time,TemperatureF,DewpointF,PressureIn,WindDirection,WindDirectionDegrees,WindSpeedMPH,WindSpeedGustMPH,Humidity,HourlyPrecipIn,Conditions,Clouds,dailyrainin,SoftwareType,DateUTC
2013-03-22 00:00:00,22.4,11.4,29.92,SSW,212,3.0,6.0,62,0.00,,,0.11,VWS V14.00,2013-03-22 04:00:00,
2013-03-22 00:01:00,22.4,11.7,29.92,SSW,210,3.0,6.0,63,0.00,,,0.11,VWS V14.00,2013-03-22 04:01:00,
2013-03-22 00:02:00,22.4,11.7,29.92,SSW,195,1.0,6.0,63,0.00,,,0.11,VWS V14.00,2013-03-22 04:02:00,
2013-03-22 00:07:00,22.3,11.6,29.92,SW,221,4.0,6.0,63,0.00,,,0.00,VWS V14.00,2013-03-22 04:07:00,
2013-03-22 00:12:00,22.2,11.5,29.91,WSW,245,2.0,6.0,63,0.00,,,0.00,VWS V14.00,2013-03-22 04:12:00,
2013-03-22 00:18:00,22.0,11.4,29.92,West,263,1.0,6.0,63,0.00,,,0.00,VWS V14.00,2013-03-22 04:18:00,
2013-03-22 00:23:00,21.9,11.2,29.92,SE,134,2.0,6.0,63,0.00,,,0.00,VWS V14.00,2013-03-22 04:23:00,
2013-03-22 00:28:00,21.9,11.2,29.91,SW,236,5.0,6.0,63,0.00,,,0.00,VWS V14.00,2013-03-22 04:28:00,
2013-03-22 00:30:00,21.7,11.1,29.92,West,263,1.0,6.0,63,0.00,,,0.00,VWS V14.00,2013-03-22 04:30:00,
2013-03-22 00:33:00,21.8,11.2,29.92,SW,225,2.0,6.0,63,0.00,,,0.00,VWS V14.00,2013-03-22 04:33:00,
2013-03-22 00:38:00,21.7,11.1,29.92,South,169,1.0,3.0,63,0.00,,,0.00,VWS V14.00,2013-03-22 04:38:00,
2013-03-22 00:43:00,21.6,11.0,29.93,West,263,1.0,3.0,63,0.00,,,0.00,VWS V14.00,2013-03-22 04:43:00,
2013-03-22 00:48:00,21.5,10.9,29.92,WNW,297,2.0,3.0,63,0.00,,,0.00,VWS V14.00,2013-03-22 04:48:00,
2013-03-22 00:53:00,21.3,11.0,29.93,WSW,245,1.0,5.0,64,0.00,,,0.00,VWS V14.00,2013-03-22 04:53:00,
2013-03-22 00:58:00,21.2,11.3,29.93,SSW,212,1.0,5.0,65,0.00,,,0.00,VWS V14.00,2013-03-22 04:58:00,
2013-03-22 01:00:00,21.2,11.3,29.92,SW,219,2.0,5.0,65,0.00,,,0.00,VWS V14.00,2013-03-22 05:00:00,
2013-03-22 01:03:00,21.2,11.3,29.93,SSW,207,0.0,5.0,65,0.00,,,0.00,VWS V14.00,2013-03-22 05:03:00,
2013-03-22 01:08:00,21.2,11.3,29.93,SSW,204,2.0,5.0,65,0.00,,,0.00,VWS V14.00,2013-03-22 05:08:00,
2013-03-22 01:13:00,21.1,11.2,29.93,SW,222,4.0,5.0,65,0.00,,,0.00,VWS V14.00,2013-03-22 05:13:00,
2013-03-22 01:18:00,21.1,11.2,29.93,SW,229,1.0,6.0,65,0.00,,,0.00,VWS V14.00,2013-03-22 05:18:00,
2013-03-22 01:23:00,21.0,11.1,29.93,SW,221,1.0,6.0,65,0.00,,,0.00,VWS V14.00,2013-03-22 05:23:00,
2013-03-22 01:28:00,20.9,11.0,29.93,WSW,257,4.0,6.0,65,0.00,,,0.00,VWS V14.00,2013-03-22 05:28:00,
2013-03-22 01:30:00,20.9,11.0,29.93,South,186,2.0,7.0,65,0.00,,,0.00,VWS V14.00,2013-03-22 05:30:00,
2013-03-22 01:33:00,20.9,11.0,29.93,SSW,210,3.0,7.0,65,0.00,,,0.00,VWS V14.00,2013-03-22 05:33:00,
2013-03-22 01:38:00,20.8,10.9,29.93,WSW,239,1.0,5.0,65,0.00,,,0.00,VWS V14.00,2013-03-22 05:38:00,
2013-03-22 01:43:00,20.7,11.1,29.93,West,277,1.0,5.0,66,0.00,,,0.00,VWS V14.00,2013-03-22 05:43:00,
2013-03-22 01:48:00,20.7,11.1,29.93,WSW,256,2.0,5.0,66,0.00,,,0.00,VWS V14.00,2013-03-22 05:48:00,
2013-03-22 01:53:00,20.6,11.1,29.92,WSW,252,3.0,5.0,66,0.00,,,0.00,VWS V14.00,2013-03-22 05:53:00,
2013-03-22 01:58:00,20.6,11.1,29.92,SW,236,1.0,5.0,66,0.00,,,0.00,VWS V14.00,2013-03-22 05:58:00,
2013-03-22 02:00:00,20.5,11.3,29.92,SSW,207,5.0,7.0,67,0.00,,,0.00,VWS V14.00,2013-03-22 06:00:00,
2013-03-22 02:03:00,20.5,11.0,29.92,SSW,195,1.0,6.0,66,0.00,,,0.00,VWS V14.00,2013-03-22 06:03:00,
2013-03-22 02:08:00,20.4,10.9,29.92,SW,229,3.0,6.0,66,0.00,,,0.00,VWS V14.00,2013-03-22 06:08:00,
2013-03-22 02:13:00,20.4,10.9,29.92,SW,230,5.0,7.0,66,0.00,,,0.00,VWS V14.00,2013-03-22 06:13:00,
2013-03-22 02:18:00,20.3,10.8,29.92,SSW,204,2.0,8.0,66,0.00,,,0.00,VWS V14.00,2013-03-22 06:18:00,
2013-03-22 02:23:00,20.3,10.8,29.93,SSW,210,4.0,8.0,66,0.00,,,0.00,VWS V14.00,2013-03-22 06:23:00,
2013-03-22 02:28:00,20.3,10.8,29.93,SSW,207,3.0,8.0,66,0.00,,,0.00,VWS V14.00,2013-03-22 06:28:00,
2013-03-22 02:30:00,20.3,10.8,29.94,SSE,159,4.0,8.0,66,0.00,,,0.00,VWS V14.00,2013-03-22 06:30:00,
2013-03-22 02:33:00,20.3,10.8,29.94,SSE,152,5.0,8.0,66,0.00,,,0.00,VWS V14.00,2013-03-22 06:33:00,
2013-03-22 02:38:00,20.3,10.8,29.94,SSW,203,5.0,5.0,66,0.00,,,0.00,VWS V14.00,2013-03-22 06:38:00,
2013-03-22 02:44:00,20.4,10.5,29.93,SSW,210,1.0,5.0,65,0.00,,,0.00,VWS V14.00,2013-03-22 06:44:00,
2013-03-22 02:49:00,20.3,10.8,29.93,SSW,207,5.0,6.0,66,0.00,,,0.00,VWS V14.00,2013-03-22 06:49:00,
2013-03-22 02:54:00,20.2,10.7,29.93,SSW,203,5.0,6.0,66,0.00,,,0.00,VWS V14.00,2013-03-22 06:54:00,
2013-03-22 02:59:00,20.2,10.7,29.94,South,175,4.0,6.0,66,0.00,,,0.00,VWS V14.00,2013-03-22 06:59:00,
2013-03-22 03:00:00,20.2,10.7,29.94,SW,228,2.0,6.0,66,0.00,,,0.00,VWS V14.00,2013-03-22 07:00:00,
2013-03-22 03:04:00,20.2,10.7,29.94,SW,214,5.0,6.0,66,0.00,,,0.00,VWS V14.00,2013-03-22 07:04:00,
2013-03-22 03:09:00,20.2,10.7,29.94,SSW,201,2.0,5.0,66,0.00,,,0.00,VWS V14.00,2013-03-22 07:09:00,
2013-03-22 03:14:00,20.1,10.6,29.94,SE,135,1.0,5.0,66,0.00,,,0.00,VWS V14.00,2013-03-22 07:14:00,
2013-03-22 03:19:00,20.1,10.2,29.94,SSW,211,4.0,6.0,65,0.00,,,0.00,VWS V14.00,2013-03-22 07:19:00,
2013-03-22 03:24:00,20.1,10.2,29.94,SSW,194,2.0,6.0,65,0.00,,,0.00,VWS V14.00,2013-03-22 07:24:00,
2013-03-22 03:29:00,20.1,10.6,29.95,SSW,209,2.0,6.0,66,0.00,,,0.00,VWS V14.00,2013-03-22 07:29:00,
2013-03-22 03:30:00,20.1,10.6,29.95,SSW,207,2.0,6.0,66,0.00,,,0.00,VWS V14.00,2013-03-22 07:30:00,
2013-03-22 03:34:00,20.1,10.6,29.95,SSW,208,2.0,6.0,66,0.00,,,0.00,VWS V14.00,2013-03-22 07:34:00,
2013-03-22 03:39:00,20.1,10.6,29.95,SSW,207,1.0,2.0,66,0.00,,,0.00,VWS V14.00,2013-03-22 07:39:00,
2013-03-22 03:44:00,20.1,10.6,29.95,ESE,117,0.0,2.0,66,0.00,,,0.00,VWS V14.00,2013-03-22 07:44:00,
2013-03-22 03:49:00,20.3,11.1,29.95,SE,135,1.0,2.0,67,0.00,,,0.00,VWS V14.00,2013-03-22 07:49:00,
2013-03-22 03:54:00,20.3,11.4,29.95,ESE,117,0.0,2.0,68,0.00,,,0.00,VWS V14.00,2013-03-22 07:54:00,
2013-03-22 03:59:00,20.3,11.1,29.96,ESE,115,0.0,2.0,67,0.00,,,0.00,VWS V14.00,2013-03-22 07:59:00,
2013-03-22 04:00:00,20.2,11.7,29.95,ESE,113,0.0,2.0,69,0.00,,,0.00,VWS V14.00,2013-03-22 08:00:00,
2013-03-22 04:04:00,20.2,11.7,29.95,ESE,115,0.0,2.0,69,0.00,,,0.00,VWS V14.00,2013-03-22 08:04:00,
2013-03-22 04:09:00,20.3,11.4,29.95,ESE,113,0.0,1.0,68,0.00,,,0.00,VWS V14.00,2013-03-22 08:09:00,
2013-03-22 04:14:00,20.1,11.2,29.96,ESE,113,0.0,1.0,68,0.00,,,0.00,VWS V14.00,2013-03-22 08:14:00,
2013-03-22 04:19:00,20.0,11.5,29.95,ESE,113,0.0,1.0,69,0.00,,,0.00,VWS V14.00,2013-03-22 08:19:00,
2013-03-22 04:24:00,19.8,11.3,29.95,ESE,110,0.0,1.0,69,0.00,,,0.00,VWS V14.00,2013-03-22 08:24:00,
2013-03-22 04:29:00,19.7,11.2,29.96,ESE,112,0.0,1.0,69,0.00,,,0.00,VWS V14.00,2013-03-22 08:29:00,
2013-03-22 04:30:00,19.5,11.0,29.96,ESE,110,0.0,0.0,69,0.00,,,0.00,VWS V14.00,2013-03-22 08:30:00,
2013-03-22 04:34:00,19.6,11.1,29.96,ESE,110,0.0,0.0,69,0.00,,,0.00,VWS V14.00,2013-03-22 08:34:00,
2013-03-22 04:39:00,19.5,11.3,29.96,ESE,110,0.0,0.0,70,0.00,,,0.00,VWS V14.00,2013-03-22 08:39:00,
2013-03-22 04:44:00,19.5,11.0,29.95,ESE,113,0.0,0.0,69,0.00,,,0.00,VWS V14.00,2013-03-22 08:44:00,
2013-03-22 04:49:00,19.5,11.0,29.96,ESE,113,0.0,0.0,69,0.00,,,0.00,VWS V14.00,2013-03-22 08:49:00,
2013-03-22 04:54:00,19.6,11.1,29.95,ESE,113,0.0,0.0,69,0.00,,,0.00,VWS V14.00,2013-03-22 08:54:00,
2013-03-22 04:59:00,19.6,11.1,29.95,ESE,113,0.0,0.0,69,0.00,,,0.00,VWS V14.00,2013-03-22 08:59:00,
2013-03-22 05:00:00,19.6,11.1,29.95,ESE,113,0.0,0.0,69,0.00,,,0.00,VWS V14.00,2013-03-22 09:00:00,
2013-03-22 05:04:00,19.6,11.1,29.95,ESE,113,0.0,0.0,69,0.00,,,0.00,VWS V14.00,2013-03-22 09:04:00,
2013-03-22 05:09:00,19.5,11.0,29.96,ESE,113,0.0,0.0,69,0.00,,,0.00,VWS V14.00,2013-03-22 09:09:00,
2013-03-22 05:14:00,19.3,10.8,29.96,ESE,113,0.0,0.0,69,0.00,,,0.00,VWS V14.00,2013-03-22 09:14:00,
2013-03-22 05:19:00,19.2,11.0,29.96,ESE,113,0.0,0.0,70,0.00,,,0.00,VWS V14.00,2013-03-22 09:19:00,
2013-03-22 05:24:00,19.3,11.1,29.96,ESE,113,0.0,1.0,70,0.00,,,0.00,VWS V14.00,2013-03-22 09:24:00,
2013-03-22 05:29:00,19.4,11.6,29.96,ESE,111,0.0,1.0,71,0.00,,,0.00,VWS V14.00,2013-03-22 09:29:00,
2013-03-22 05:30:00,19.5,11.6,29.96,ESE,113,0.0,1.0,71,0.00,,,0.00,VWS V14.00,2013-03-22 09:30:00,
2013-03-22 05:34:00,19.5,11.6,29.96,ESE,113,0.0,1.0,71,0.00,,,0.00,VWS V14.00,2013-03-22 09:34:00,
2013-03-22 05:39:00,19.6,11.7,29.95,ESE,113,0.0,0.0,71,0.00,,,0.00,VWS V14.00,2013-03-22 09:39:00,
2013-03-22 05:44:00,19.6,11.4,29.96,ESE,113,0.0,0.0,70,0.00,,,0.00,VWS V14.00,2013-03-22 09:44:00,
2013-03-22 05:50:00,19.7,11.8,29.96,ESE,113,0.0,0.0,71,0.00,,,0.00,VWS V14.00,2013-03-22 09:50:00,
2013-03-22 05:55:00,19.7,11.2,29.96,ESE,113,0.0,0.0,69,0.00,,,0.00,VWS V14.00,2013-03-22 09:55:00,
2013-03-22 06:00:00,19.6,11.4,29.96,ESE,113,0.0,0.0,70,0.00,,,0.00,VWS V14.00,2013-03-22 10:00:00,
2013-03-22 06:05:00,19.7,11.8,29.97,ESE,113,0.0,0.0,71,0.00,,,0.00,VWS V14.00,2013-03-22 10:05:00,
2013-03-22 06:10:00,19.8,11.9,29.97,ESE,113,0.0,0.0,71,0.00,,,0.00,VWS V14.00,2013-03-22 10:10:00,
2013-03-22 06:15:00,19.8,11.6,29.97,ESE,113,0.0,0.0,70,0.00,,,0.00,VWS V14.00,2013-03-22 10:15:00,
2013-03-22 06:20:00,19.8,11.6,29.98,ESE,113,0.0,0.0,70,0.00,,,0.00,VWS V14.00,2013-03-22 10:20:00,
2013-03-22 06:25:00,20.0,11.8,29.98,ESE,113,0.0,0.0,70,0.00,,,0.00,VWS V14.00,2013-03-22 10:25:00,
2013-03-22 06:30:00,20.0,11.5,29.98,ESE,113,0.0,0.0,69,0.00,,,0.00,VWS V14.00,2013-03-22 10:30:00,
2013-03-22 06:35:00,20.3,12.4,29.98,ESE,113,0.0,0.0,71,0.00,,,0.00,VWS V14.00,2013-03-22 10:35:00,
2013-03-22 06:40:00,20.4,12.2,29.98,ESE,113,0.0,0.0,70,0.00,,,0.00,VWS V14.00,2013-03-22 10:40:00,
2013-03-22 06:45:00,20.3,11.4,29.98,ESE,113,0.0,0.0,68,0.00,,,0.00,VWS V14.00,2013-03-22 10:45:00,
2013-03-22 06:50:00,20.2,11.7,29.98,WSW,252,0.0,0.0,69,0.00,,,0.00,VWS V14.00,2013-03-22 10:50:00,
2013-03-22 06:55:00,20.3,11.4,29.98,WSW,255,1.0,2.0,68,0.00,,,0.00,VWS V14.00,2013-03-22 10:55:00,
2013-03-22 07:00:00,20.4,11.5,29.99,WSW,256,1.0,2.0,68,0.00,,,0.00,VWS V14.00,2013-03-22 11:00:00,
2013-03-22 07:05:00,20.4,11.5,29.99,WSW,256,0.0,2.0,68,0.00,,,0.00,VWS V14.00,2013-03-22 11:05:00,
2013-03-22 07:10:00,20.4,11.9,29.99,South,191,0.0,2.0,69,0.00,,,0.00,VWS V14.00,2013-03-22 11:10:00,
2013-03-22 07:15:00,20.6,11.7,30.00,ESE,115,0.0,2.0,68,0.00,,,0.00,VWS V14.00,2013-03-22 11:15:00,
2013-03-22 07:20:00,20.8,11.6,30.00,East,95,0.0,2.0,67,0.00,,,0.00,VWS V14.00,2013-03-22 11:20:00,
2013-03-22 07:25:00,21.0,11.8,30.00,ESE,105,0.0,2.0,67,0.00,,,0.00,VWS V14.00,2013-03-22 11:25:00,
2013-03-22 07:30:00,21.0,11.8,29.99,SW,229,0.0,2.0,67,0.00,,,0.00,VWS V14.00,2013-03-22 11:30:00,
2013-03-22 07:35:00,20.8,10.9,29.99,West,259,0.0,2.0,65,0.00,,,0.00,VWS V14.00,2013-03-22 11:35:00,
2013-03-22 07:40:00,20.8,11.2,30.00,WSW,258,0.0,0.0,66,0.00,,,0.00,VWS V14.00,2013-03-22 11:40:00,
2013-03-22 07:45:00,21.1,11.5,29.99,WSW,258,0.0,0.0,66,0.00,,,0.00,VWS V14.00,2013-03-22 11:45:00,
2013-03-22 07:50:00,21.3,12.1,30.00,West,259,0.0,0.0,67,0.00,,,0.00,VWS V14.00,2013-03-22 11:50:00,
2013-03-22 07:55:00,21.4,12.5,30.00,West,259,0.0,0.0,68,0.00,,,0.00,VWS V14.00,2013-03-22 11:55:00,
2013-03-22 08:00:00,22.1,12.8,30.00,West,259,0.0,0.0,67,0.00,,,0.00,VWS V14.00,2013-03-22 12:00:00,
2013-03-22 08:01:00,21.6,12.4,30.00,West,259,0.0,0.0,67,0.00,,,0.00,VWS V14.00,2013-03-22 12:01:00,
2013-03-22 08:06:00,22.1,12.5,30.00,West,259,0.0,0.0,66,0.00,,,0.00,VWS V14.00,2013-03-22 12:06:00,
2013-03-22 08:11:00,22.7,12.4,30.00,WSW,258,0.0,0.0,64,0.00,,,0.00,VWS V14.00,2013-03-22 12:11:00,
2013-03-22 08:16:00,23.2,13.5,30.00,West,260,0.0,0.0,66,0.00,,,0.00,VWS V14.00,2013-03-22 12:16:00,
2013-03-22 08:21:00,23.5,14.2,30.00,West,260,0.0,0.0,67,0.00,,,0.00,VWS V14.00,2013-03-22 12:21:00,
2013-03-22 08:26:00,23.6,13.6,30.00,West,262,0.0,0.0,65,0.00,,,0.00,VWS V14.00,2013-03-22 12:26:00,
2013-03-22 08:30:00,23.9,15.2,30.00,West,278,0.0,0.0,69,0.00,,,0.00,VWS V14.00,2013-03-22 12:30:00,
2013-03-22 08:31:00,23.8,15.1,30.00,West,278,0.0,0.0,69,0.00,,,0.00,VWS V14.00,2013-03-22 12:31:00,
2013-03-22 08:36:00,23.8,15.1,30.00,West,278,0.0,0.0,69,0.00,,,0.00,VWS V14.00,2013-03-22 12:36:00,
2013-03-22 08:41:00,24.0,15.6,30.00,North,350,0.0,0.0,70,0.00,,,0.00,VWS V14.00,2013-03-22 12:41:00,
2013-03-22 08:46:00,24.0,14.6,30.00,NE,44,0.0,0.0,67,0.00,,,0.00,VWS V14.00,2013-03-22 12:46:00,
2013-03-22 08:51:00,24.3,14.9,30.00,NE,44,0.0,0.0,67,0.00,,,0.00,VWS V14.00,2013-03-22 12:51:00,
2013-03-22 08:56:00,25.5,16.8,30.00,NE,40,0.0,0.0,69,0.00,,,0.00,VWS V14.00,2013-03-22 12:56:00,
2013-03-22 09:00:00,26.5,16.3,30.00,SSE,158,0.0,0.0,65,0.00,,,0.00,VWS V14.00,2013-03-22 13:00:00,
2013-03-22 09:01:00,26.3,16.9,30.00,NNE,16,0.0,0.0,67,0.00,,,0.00,VWS V14.00,2013-03-22 13:01:00,
2013-03-22 09:07:00,26.5,16.7,30.00,East,97,0.0,0.0,66,0.00,,,0.00,VWS V14.00,2013-03-22 13:07:00,
2013-03-22 09:12:00,26.2,16.4,30.00,East,92,0.0,0.0,66,0.00,,,0.00,VWS V14.00,2013-03-22 13:12:00,
2013-03-22 09:17:00,26.7,16.9,30.00,NNE,27,1.0,2.0,66,0.00,,,0.00,VWS V14.00,2013-03-22 13:17:00,
2013-03-22 09:22:00,27.0,16.8,30.00,ENE,67,0.0,2.0,65,0.00,,,0.00,VWS V14.00,2013-03-22 13:22:00,
2013-03-22 09:27:00,26.4,16.9,30.00,East,80,1.0,2.0,67,0.00,,,0.00,VWS V14.00,2013-03-22 13:27:00,
2013-03-22 09:30:00,26.6,17.1,30.00,ENE,78,1.0,2.0,67,0.00,,,0.00,VWS V14.00,2013-03-22 13:30:00,
2013-03-22 09:32:00,26.5,17.0,30.00,ENE,77,1.0,2.0,67,0.00,,,0.00,VWS V14.00,2013-03-22 13:32:00,
2013-03-22 09:37:00,26.7,16.9,30.00,ENE,78,0.0,1.0,66,0.00,,,0.00,VWS V14.00,2013-03-22 13:37:00,
2013-03-22 09:42:00,26.8,17.3,30.00,ENE,77,1.0,1.0,67,0.00,,,0.00,VWS V14.00,2013-03-22 13:42:00,
2013-03-22 09:47:00,27.1,18.0,30.01,ENE,78,0.0,1.0,68,0.00,,,0.00,VWS V14.00,2013-03-22 13:47:00,
2013-03-22 09:52:00,27.2,17.7,30.01,ESE,112,0.0,1.0,67,0.00,,,0.00,VWS V14.00,2013-03-22 13:52:00,
2013-03-22 09:58:00,27.0,17.5,30.00,East,83,1.0,2.0,67,0.00,,,0.00,VWS V14.00,2013-03-22 13:58:00,
2013-03-22 10:00:00,27.3,18.5,30.01,East,84,0.0,2.0,69,0.00,,,0.00,VWS V14.00,2013-03-22 14:00:00,
2013-03-22 10:03:00,27.0,18.2,30.00,East,83,1.0,2.0,69,0.00,,,0.00,VWS V14.00,2013-03-22 14:03:00,
2013-03-22 10:08:00,27.7,18.9,30.00,East,80,1.0,1.0,69,0.00,,,0.00,VWS V14.00,2013-03-22 14:08:00,
2013-03-22 10:13:00,27.7,17.8,30.00,ENE,78,0.0,1.0,66,0.00,,,0.00,VWS V14.00,2013-03-22 14:13:00,
2013-03-22 10:18:00,27.1,17.3,30.01,ENE,77,1.0,2.0,66,0.00,,,0.00,VWS V14.00,2013-03-22 14:18:00,
2013-03-22 10:23:00,27.1,17.6,30.01,ENE,77,0.0,2.0,67,0.00,,,0.00,VWS V14.00,2013-03-22 14:23:00,
2013-03-22 10:28:00,27.7,17.8,30.01,ENE,77,0.0,2.0,66,0.00,,,0.00,VWS V14.00,2013-03-22 14:28:00,
2013-03-22 10:30:00,28.2,18.3,30.00,East,90,1.0,2.0,66,0.00,,,0.00,VWS V14.00,2013-03-22 14:30:00,
2013-03-22 10:33:00,28.2,18.7,30.00,ENE,75,0.0,2.0,67,0.00,,,0.00,VWS V14.00,2013-03-22 14:33:00,
2013-03-22 10:38:00,28.5,19.0,30.00,East,90,0.0,1.0,67,0.00,,,0.00,VWS V14.00,2013-03-22 14:38:00,
2013-03-22 10:43:00,29.1,18.8,30.01,East,84,1.0,1.0,65,0.00,,,0.00,VWS V14.00,2013-03-22 14:43:00,
2013-03-22 10:48:00,29.5,18.8,30.00,ENE,75,1.0,1.0,64,0.00,,,0.00,VWS V14.00,2013-03-22 14:48:00,
2013-03-22 10:53:00,29.7,18.7,30.00,East,79,1.0,3.0,63,0.00,,,0.00,VWS V14.00,2013-03-22 14:53:00,
2013-03-22 10:58:00,29.7,19.0,30.00,ENE,61,0.0,3.0,64,0.00,,,0.00,VWS V14.00,2013-03-22 14:58:00,
2013-03-22 11:00:00,30.9,19.4,29.99,NE,43,2.0,3.0,62,0.00,,,0.00,VWS V14.00,2013-03-22 15:00:00,
2013-03-22 11:04:00,30.6,19.9,30.00,ENE,61,0.0,3.0,64,0.00,,,0.00,VWS V14.00,2013-03-22 15:04:00,
2013-03-22 11:09:00,31.4,19.1,30.00,East,83,0.0,2.0,60,0.00,,,0.00,VWS V14.00,2013-03-22 15:09:00,
2013-03-22 11:14:00,32.1,19.4,29.99,NNE,30,0.0,2.0,59,0.00,,,0.00,VWS V14.00,2013-03-22 15:14:00,
2013-03-22 11:19:00,32.6,19.9,29.99,ENE,62,1.0,2.0,59,0.00,,,0.00,VWS V14.00,2013-03-22 15:19:00,
2013-03-22 11:24:00,33.1,20.4,29.99,ENE,77,2.0,3.0,59,0.00,,,0.00,VWS V14.00,2013-03-22 15:24:00,
2013-03-22 11:29:00,33.6,19.2,29.99,East,86,2.0,3.0,55,0.00,,,0.00,VWS V14.00,2013-03-22 15:29:00,
2013-03-22 11:30:00,34.1,17.9,29.99,ENE,61,1.0,4.0,51,0.00,,,0.00,VWS V14.00,2013-03-22 15:30:00,
2013-03-22 11:34:00,33.9,19.9,29.99,NE,53,0.0,4.0,56,0.00,,,0.00,VWS V14.00,2013-03-22 15:34:00,
2013-03-22 11:39:00,34.5,18.2,29.99,East,80,3.0,3.0,51,0.00,,,0.00,VWS V14.00,2013-03-22 15:39:00,
2013-03-22 11:44:00,34.8,17.1,29.99,East,81,1.0,3.0,48,0.00,,,0.00,VWS V14.00,2013-03-22 15:44:00,
2013-03-22 11:49:00,35.0,17.8,29.99,ENE,60,2.0,3.0,49,0.00,,,0.00,VWS V14.00,2013-03-22 15:49:00,
2013-03-22 11:54:00,35.4,17.7,29.98,NE,44,1.0,3.0,48,0.00,,,0.00,VWS V14.00,2013-03-22 15:54:00,
2013-03-22 11:59:00,36.2,17.4,29.98,NE,47,2.0,3.0,46,0.00,,,0.00,VWS V14.00,2013-03-22 15:59:00,
2013-03-22 12:00:00,37.7,17.8,29.97,NNE,29,3.0,4.0,44,0.00,,,0.00,VWS V14.00,2013-03-22 16:00:00,
2013-03-22 12:04:00,37.6,16.6,29.97,NE,34,2.0,4.0,42,0.00,,,0.00,VWS V14.00,2013-03-22 16:04:00,
2013-03-22 12:09:00,38.1,18.1,29.97,NE,50,2.0,3.0,44,0.00,,,0.00,VWS V14.00,2013-03-22 16:09:00,
2013-03-22 12:14:00,38.3,18.3,29.98,NE,44,4.0,4.0,44,0.00,,,0.00,VWS V14.00,2013-03-22 16:14:00,
2013-03-22 12:19:00,38.6,17.5,29.98,East,84,3.0,5.0,42,0.00,,,0.00,VWS V14.00,2013-03-22 16:19:00,
2013-03-22 12:24:00,38.0,17.5,29.98,ENE,72,2.0,5.0,43,0.00,,,0.00,VWS V14.00,2013-03-22 16:24:00,
2013-03-22 12:29:00,38.7,17.6,29.97,ENE,73,1.0,5.0,42,0.00,,,0.00,VWS V14.00,2013-03-22 16:29:00,
2013-03-22 12:30:00,39.7,16.2,29.97,North,356,2.0,5.0,38,0.00,,,0.00,VWS V14.00,2013-03-22 16:30:00,
2013-03-22 12:34:00,39.7,16.2,29.97,ENE,64,3.0,5.0,38,0.00,,,0.00,VWS V14.00,2013-03-22 16:34:00,
2013-03-22 12:39:00,40.2,17.8,29.96,North,352,2.0,3.0,40,0.00,,,0.00,VWS V14.00,2013-03-22 16:39:00,
2013-03-22 12:45:00,41.0,18.0,29.97,NE,51,2.0,5.0,39,0.00,,,0.00,VWS V14.00,2013-03-22 16:45:00,
2013-03-22 12:50:00,42.9,20.8,29.96,WNW,283,0.0,5.0,41,0.00,,,0.00,VWS V14.00,2013-03-22 16:50:00,
2013-03-22 12:55:00,43.4,17.6,29.96,NW,316,2.0,6.0,35,0.00,,,0.00,VWS V14.00,2013-03-22 16:55:00,
2013-03-22 13:00:00,43.8,19.2,29.96,North,358,2.0,6.0,37,0.00,,,0.00,VWS V14.00,2013-03-22 17:00:00,
2013-03-22 13:05:00,44.1,19.5,29.96,NE,34,2.0,6.0,37,0.00,,,0.00,VWS V14.00,2013-03-22 17:05:00,
2013-03-22 13:10:00,44.1,18.9,29.94,NE,53,3.0,5.0,36,0.00,,,0.00,VWS V14.00,2013-03-22 17:10:00,
2013-03-22 13:15:00,44.4,20.4,29.94,ENE,61,3.0,5.0,38,0.00,,,0.00,VWS V14.00,2013-03-22 17:15:00,
2013-03-22 13:20:00,44.9,18.9,29.94,North,359,2.0,6.0,35,0.00,,,0.00,VWS V14.00,2013-03-22 17:20:00,
2013-03-22 13:26:00,44.9,17.6,29.93,NNE,22,5.0,6.0,33,0.00,,,0.00,VWS V14.00,2013-03-22 17:26:00,
2013-03-22 13:30:00,45.1,17.7,29.93,NNW,347,0.0,6.0,33,0.00,,,0.00,VWS V14.00,2013-03-22 17:30:00,
2013-03-22 13:31:00,46.1,20.6,29.93,North,5,4.0,6.0,36,0.00,,,0.00,VWS V14.00,2013-03-22 17:31:00,
2013-03-22 13:36:00,45.1,17.7,29.93,North,352,0.0,0.0,33,0.00,,,0.00,VWS V14.00,2013-03-22 17:36:00,
2013-03-22 13:41:00,46.2,22.0,29.93,NE,53,2.0,4.0,38,0.00,,,0.00,VWS V14.00,2013-03-22 17:41:00,
2013-03-22 13:46:00,47.6,23.9,29.93,NE,42,3.0,6.0,39,0.00,,,0.00,VWS V14.00,2013-03-22 17:46:00,
2013-03-22 13:51:00,47.6,20.6,29.93,North,4,2.0,6.0,34,0.00,,,0.00,VWS V14.00,2013-03-22 17:51:00,
2013-03-22 13:56:00,46.6,19.8,29.93,ENE,65,2.0,7.0,34,0.00,,,0.00,VWS V14.00,2013-03-22 17:56:00,
2013-03-22 14:00:00,45.9,19.8,29.93,NE,47,4.0,7.0,35,0.00,,,0.00,VWS V14.00,2013-03-22 18:00:00,
2013-03-22 14:01:00,46.7,21.2,29.93,NNE,24,4.0,7.0,36,0.00,,,0.00,VWS V14.00,2013-03-22 18:01:00,
2013-03-22 14:06:00,45.9,21.1,29.93,NNE,30,4.0,5.0,37,0.00,,,0.00,VWS V14.00,2013-03-22 18:06:00,
2013-03-22 14:11:00,45.7,20.9,29.93,NNE,29,4.0,5.0,37,0.00,,,0.00,VWS V14.00,2013-03-22 18:11:00,
2013-03-22 14:16:00,45.4,20.0,29.92,NE,50,2.0,6.0,36,0.00,,,0.00,VWS V14.00,2013-03-22 18:16:00,
2013-03-22 14:22:00,45.3,19.3,29.92,NNE,15,3.0,6.0,35,0.00,,,0.00,VWS V14.00,2013-03-22 18:22:00,
2013-03-22 14:27:00,45.1,19.8,29.91,NNE,27,3.0,6.0,36,0.00,,,0.00,VWS V14.00,2013-03-22 18:27:00,
2013-03-22 14:30:00,45.5,20.8,29.91,NE,56,3.0,6.0,37,0.00,,,0.00,VWS V14.00,2013-03-22 18:30:00,
2013-03-22 14:32:00,45.6,18.9,29.91,North,6,2.0,6.0,34,0.00,,,0.00,VWS V14.00,2013-03-22 18:32:00,
2013-03-22 14:37:00,45.5,20.1,29.90,NE,35,2.0,4.0,36,0.00,,,0.00,VWS V14.00,2013-03-22 18:37:00,
2013-03-22 14:42:00,44.7,20.0,29.91,NNE,23,2.0,4.0,37,0.00,,,0.00,VWS V14.00,2013-03-22 18:42:00,
2013-03-22 14:47:00,44.3,19.0,29.90,NW,305,4.0,4.0,36,0.00,,,0.00,VWS V14.00,2013-03-22 18:47:00,
2013-03-22 14:52:00,43.6,19.1,29.90,NE,34,1.0,4.0,37,0.00,,,0.00,VWS V14.00,2013-03-22 18:52:00,
2013-03-22 14:57:00,44.1,20.1,29.90,North,5,1.0,4.0,38,0.00,,,0.00,VWS V14.00,2013-03-22 18:57:00,
2013-03-22 15:00:00,44.2,19.0,29.90,ENE,62,0.0,4.0,36,0.00,,,0.00,VWS V14.00,2013-03-22 19:00:00,
2013-03-22 15:02:00,44.3,19.7,29.89,NNW,345,0.0,4.0,37,0.00,,,0.00,VWS V14.00,2013-03-22 19:02:00,
2013-03-22 15:07:00,44.2,19.6,29.90,ENE,61,1.0,1.0,37,0.00,,,0.00,VWS V14.00,2013-03-22 19:07:00,
2013-03-22 15:12:00,44.1,19.5,29.91,ESE,113,0.0,3.0,37,0.00,,,0.00,VWS V14.00,2013-03-22 19:12:00,
2013-03-22 15:17:00,43.7,19.1,29.90,NNW,343,1.0,4.0,37,0.00,,,0.00,VWS V14.00,2013-03-22 19:17:00,
2013-03-22 15:22:00,44.0,20.0,29.90,NNW,346,1.0,4.0,38,0.00,,,0.00,VWS V14.00,2013-03-22 19:22:00,
2013-03-22 15:27:00,43.9,20.0,29.89,ENE,65,1.0,4.0,38,0.00,,,0.00,VWS V14.00,2013-03-22 19:27:00,
2013-03-22 15:30:00,43.9,21.2,29.89,NE,37,1.0,4.0,40,0.00,,,0.00,VWS V14.00,2013-03-22 19:30:00,
2013-03-22 15:32:00,43.8,21.1,29.89,NNW,329,1.0,4.0,40,0.00,,,0.00,VWS V14.00,2013-03-22 19:32:00,
2013-03-22 15:37:00,43.9,21.2,29.89,NE,37,1.0,2.0,40,0.00,,,0.00,VWS V14.00,2013-03-22 19:37:00,
2013-03-22 15:42:00,44.2,22.6,29.89,NW,316,2.0,2.0,42,0.00,,,0.00,VWS V14.00,2013-03-22 19:42:00,
2013-03-22 15:48:00,43.9,21.2,29.89,NW,316,0.0,3.0,40,0.00,,,0.00,VWS V14.00,2013-03-22 19:48:00,
2013-03-22 15:53:00,43.8,21.1,29.88,WSW,253,1.0,3.0,40,0.00,,,0.00,VWS V14.00,2013-03-22 19:53:00,
2013-03-22 15:58:00,43.8,21.1,29.88,WSW,255,0.0,3.0,40,0.00,,,0.00,VWS V14.00,2013-03-22 19:58:00,
2013-03-22 16:00:00,43.8,22.2,29.88,NW,316,0.0,3.0,42,0.00,,,0.00,VWS V14.00,2013-03-22 20:00:00,
2013-03-22 16:03:00,43.8,21.6,29.88,NW,316,1.0,3.0,41,0.00,,,0.00,VWS V14.00,2013-03-22 20:03:00,
2013-03-22 16:08:00,43.9,21.2,29.88,NW,306,0.0,1.0,40,0.00,,,0.00,VWS V14.00,2013-03-22 20:08:00,
2013-03-22 16:13:00,44.0,21.8,29.88,North,356,1.0,1.0,41,0.00,,,0.00,VWS V14.00,2013-03-22 20:13:00,
2013-03-22 16:18:00,44.1,21.9,29.88,SW,215,4.0,5.0,41,0.00,,,0.00,VWS V14.00,2013-03-22 20:18:00,
2013-03-22 16:23:00,43.7,22.7,29.88,ENE,67,1.0,5.0,43,0.00,,,0.00,VWS V14.00,2013-03-22 20:23:00,
2013-03-22 16:28:00,43.8,22.2,29.88,NE,44,1.0,5.0,42,0.00,,,0.00,VWS V14.00,2013-03-22 20:28:00,
2013-03-22 16:30:00,43.2,22.2,29.88,ENE,61,4.0,9.0,43,0.00,,,0.00,VWS V14.00,2013-03-22 20:30:00,
2013-03-22 16:33:00,43.4,22.4,29.89,ESE,115,4.0,9.0,43,0.00,,,0.00,VWS V14.00,2013-03-22 20:33:00,
2013-03-22 16:38:00,42.9,22.5,29.88,SE,129,3.0,5.0,44,0.00,,,0.00,VWS V14.00,2013-03-22 20:38:00,
2013-03-22 16:43:00,42.6,23.3,29.89,ESE,121,6.0,13.0,46,0.00,,,0.00,VWS V14.00,2013-03-22 20:43:00,
2013-03-22 16:48:00,42.4,23.6,29.88,SE,124,4.0,13.0,47,0.00,,,0.00,VWS V14.00,2013-03-22 20:48:00,
2013-03-22 16:53:00,42.0,23.8,29.89,ENE,77,5.0,13.0,48,0.00,,,0.00,VWS V14.00,2013-03-22 20:53:00,
2013-03-22 16:58:00,41.7,24.0,29.88,ENE,77,5.0,13.0,49,0.00,,,0.00,VWS V14.00,2013-03-22 20:58:00,
2013-03-22 17:00:00,41.3,24.5,29.88,ESE,121,5.0,13.0,51,0.00,,,0.00,VWS V14.00,2013-03-22 21:00:00,
2013-03-22 17:03:00,41.3,24.1,29.88,ESE,118,8.0,13.0,50,0.00,,,0.00,VWS V14.00,2013-03-22 21:03:00,
2013-03-22 17:08:00,41.3,24.5,29.88,East,86,9.0,11.0,51,0.00,,,0.00,VWS V14.00,2013-03-22 21:08:00,
2013-03-22 17:13:00,41.1,25.3,29.88,ENE,77,3.0,11.0,53,0.00,,,0.00,VWS V14.00,2013-03-22 21:13:00,
2013-03-22 17:18:00,41.0,25.2,29.88,East,101,9.0,11.0,53,0.00,,,0.00,VWS V14.00,2013-03-22 21:18:00,
2013-03-22 17:23:00,40.7,25.4,29.88,East,80,8.0,11.0,54,0.00,,,0.00,VWS V14.00,2013-03-22 21:23:00,
2013-03-22 17:28:00,40.5,25.2,29.88,East,96,2.0,11.0,54,0.00,,,0.00,VWS V14.00,2013-03-22 21:28:00,
2013-03-22 17:30:00,40.4,25.5,29.88,ENE,78,3.0,11.0,55,0.00,,,0.00,VWS V14.00,2013-03-22 21:30:00,
2013-03-22 17:33:00,40.5,25.2,29.88,ENE,65,3.0,11.0,54,0.00,,,0.00,VWS V14.00,2013-03-22 21:33:00,
2013-03-22 17:38:00,40.5,26.0,29.88,ENE,68,2.0,4.0,56,0.00,,,0.00,VWS V14.00,2013-03-22 21:38:00,
2013-03-22 17:43:00,40.7,26.2,29.88,ENE,71,4.0,5.0,56,0.00,,,0.00,VWS V14.00,2013-03-22 21:43:00,
2013-03-22 17:48:00,40.7,26.7,29.88,SE,128,3.0,5.0,57,0.00,,,0.00,VWS V14.00,2013-03-22 21:48:00,
2013-03-22 17:53:00,40.8,26.8,29.88,ESE,105,2.0,5.0,57,0.00,,,0.00,VWS V14.00,2013-03-22 21:53:00,
2013-03-22 17:59:00,40.7,26.7,29.89,East,88,2.0,7.0,57,0.00,,,0.00,VWS V14.00,2013-03-22 21:59:00,
2013-03-22 18:00:00,40.5,27.3,29.88,East,96,0.0,9.0,59,0.00,,,0.00,VWS V14.00,2013-03-22 22:00:00,
2013-03-22 18:04:00,40.5,26.9,29.88,SE,126,2.0,9.0,58,0.00,,,0.00,VWS V14.00,2013-03-22 22:04:00,
2013-03-22 18:09:00,40.7,27.9,29.88,SE,129,5.0,5.0,60,0.00,,,0.00,VWS V14.00,2013-03-22 22:09:00,
2013-03-22 18:14:00,40.7,27.5,29.88,East,82,1.0,6.0,59,0.00,,,0.00,VWS V14.00,2013-03-22 22:14:00,
2013-03-22 18:19:00,40.6,27.4,29.88,SE,124,3.0,6.0,59,0.00,,,0.00,VWS V14.00,2013-03-22 22:19:00,
2013-03-22 18:24:00,40.6,27.8,29.88,NNE,28,1.0,6.0,60,0.00,,,0.00,VWS V14.00,2013-03-22 22:24:00,
2013-03-22 18:29:00,40.5,27.7,29.88,East,84,4.0,7.0,60,0.00,,,0.00,VWS V14.00,2013-03-22 22:29:00,
2013-03-22 18:30:00,40.3,27.5,29.88,SSE,155,2.0,7.0,60,0.00,,,0.00,VWS V14.00,2013-03-22 22:30:00,
2013-03-22 18:34:00,40.4,27.6,29.88,East,87,3.0,7.0,60,0.00,,,0.00,VWS V14.00,2013-03-22 22:34:00,
2013-03-22 18:39:00,40.3,27.9,29.87,East,84,5.0,6.0,61,0.00,,,0.00,VWS V14.00,2013-03-22 22:39:00,
2013-03-22 18:44:00,40.3,28.3,29.87,SE,124,4.0,10.0,62,0.00,,,0.00,VWS V14.00,2013-03-22 22:44:00,
2013-03-22 18:49:00,40.2,28.2,29.87,ENE,70,7.0,10.0,62,0.00,,,0.00,VWS V14.00,2013-03-22 22:49:00,
2013-03-22 18:54:00,40.1,28.1,29.87,East,82,3.0,10.0,62,0.00,,,0.00,VWS V14.00,2013-03-22 22:54:00,
2013-03-22 18:59:00,40.2,28.6,29.87,ESE,102,6.0,10.0,63,0.00,,,0.00,VWS V14.00,2013-03-22 22:59:00,
2013-03-22 19:00:00,40.1,28.5,29.87,ESE,107,4.0,10.0,63,0.00,,,0.00,VWS V14.00,2013-03-22 23:00:00,
2013-03-22 19:04:00,40.1,28.5,29.87,SE,132,4.0,10.0,63,0.00,,,0.00,VWS V14.00,2013-03-22 23:04:00,
2013-03-22 19:09:00,40.0,28.8,29.87,ESE,105,5.0,10.0,64,0.00,,,0.00,VWS V14.00,2013-03-22 23:09:00,
2013-03-22 19:14:00,39.9,28.7,29.87,East,101,7.0,10.0,64,0.00,,,0.00,VWS V14.00,2013-03-22 23:14:00,
2013-03-22 19:19:00,39.9,29.1,29.87,East,86,3.0,10.0,65,0.00,,,0.00,VWS V14.00,2013-03-22 23:19:00,
2013-03-22 19:24:00,39.7,28.9,29.87,East,80,4.0,10.0,65,0.00,,,0.00,VWS V14.00,2013-03-22 23:24:00,
2013-03-22 19:29:00,39.7,28.9,29.87,ESE,107,4.0,10.0,65,0.00,,,0.00,VWS V14.00,2013-03-22 23:29:00,
2013-03-22 19:30:00,39.7,29.3,29.87,East,97,4.0,10.0,66,0.00,,,0.00,VWS V14.00,2013-03-22 23:30:00,
2013-03-22 19:34:00,39.7,29.3,29.87,SE,124,5.0,10.0,66,0.00,,,0.00,VWS V14.00,2013-03-22 23:34:00,
2013-03-22 19:39:00,39.7,29.3,29.87,SE,141,5.0,6.0,66,0.00,,,0.00,VWS V14.00,2013-03-22 23:39:00,
2013-03-22 19:44:00,39.6,28.8,29.87,East,98,3.0,9.0,65,0.00,,,0.00,VWS V14.00,2013-03-22 23:44:00,
2013-03-22 19:49:00,39.5,29.1,29.87,ENE,71,2.0,9.0,66,0.00,,,0.00,VWS V14.00,2013-03-22 23:49:00,
2013-03-22 19:54:00,39.5,29.1,29.87,SSE,154,8.0,9.0,66,0.00,,,0.00,VWS V14.00,2013-03-22 23:54:00,
2013-03-22 19:59:00,39.4,29.4,29.88,South,177,3.0,9.0,67,0.00,,,0.00,VWS V14.00,2013-03-22 23:59:00,
2013-03-22 20:00:00,39.3,29.3,29.88,SE,124,2.0,9.0,67,0.00,,,0.00,VWS V14.00,2013-03-23 00:00:00,
2013-03-22 20:04:00,39.3,29.3,29.88,East,92,4.0,9.0,67,0.00,,,0.00,VWS V14.00,2013-03-23 00:04:00,
2013-03-22 20:09:00,39.2,29.2,29.88,ESE,111,0.0,7.0,67,0.00,,,0.00,VWS V14.00,2013-03-23 00:09:00,
2013-03-22 20:14:00,39.2,29.2,29.88,ESE,105,2.0,7.0,67,0.00,,,0.00,VWS V14.00,2013-03-23 00:14:00,
2013-03-22 20:19:00,39.1,29.1,29.87,SE,143,4.0,7.0,67,0.00,,,0.00,VWS V14.00,2013-03-23 00:19:00,
2013-03-22 20:24:00,39.1,29.5,29.87,SE,125,3.0,7.0,68,0.00,,,0.00,VWS V14.00,2013-03-23 00:24:00,
2013-03-22 20:29:00,38.9,29.2,29.87,ESE,115,2.0,7.0,68,0.00,,,0.00,VWS V14.00,2013-03-23 00:29:00,
2013-03-22 20:30:00,38.8,29.2,29.88,SE,129,3.0,7.0,68,0.00,,,0.00,VWS V14.00,2013-03-23 00:30:00,
2013-03-22 20:34:00,38.9,29.2,29.87,SE,143,1.0,7.0,68,0.00,,,0.00,VWS V14.00,2013-03-23 00:34:00,
2013-03-22 20:39:00,38.8,29.5,29.88,ESE,114,2.0,6.0,69,0.00,,,0.00,VWS V14.00,2013-03-23 00:39:00,
2013-03-22 20:44:00,38.8,29.5,29.88,SE,146,2.0,8.0,69,0.00,,,0.00,VWS V14.00,2013-03-23 00:44:00,
2013-03-22 20:49:00,38.7,29.4,29.87,SE,131,0.0,8.0,69,0.00,,,0.00,VWS V14.00,2013-03-23 00:49:00,
2013-03-22 20:54:00,38.6,29.3,29.88,SE,124,2.0,8.0,69,0.00,,,0.00,VWS V14.00,2013-03-23 00:54:00,
2013-03-22 20:59:00,38.6,29.7,29.88,ESE,115,2.0,8.0,70,0.00,,,0.00,VWS V14.00,2013-03-23 00:59:00,
2013-03-22 21:00:00,38.5,29.6,29.89,ESE,115,2.0,8.0,70,0.00,,,0.00,VWS V14.00,2013-03-23 01:00:00,
2013-03-22 21:04:00,38.5,29.6,29.88,SE,131,1.0,8.0,70,0.00,,,0.00,VWS V14.00,2013-03-23 01:04:00,
2013-03-22 21:09:00,38.5,29.2,29.89,East,94,1.0,4.0,69,0.00,,,0.00,VWS V14.00,2013-03-23 01:09:00,
2013-03-22 21:14:00,38.5,29.6,29.89,ESE,112,2.0,4.0,70,0.00,,,0.00,VWS V14.00,2013-03-23 01:14:00,
2013-03-22 21:19:00,38.5,29.6,29.88,SE,131,2.0,4.0,70,0.00,,,0.00,VWS V14.00,2013-03-23 01:19:00,
2013-03-22 21:24:00,38.5,29.2,29.89,East,96,1.0,4.0,69,0.00,,,0.00,VWS V14.00,2013-03-23 01:24:00,
2013-03-22 21:30:00,38.5,29.6,29.89,ENE,74,4.0,5.0,70,0.00,,,0.00,VWS V14.00,2013-03-23 01:30:00,
2013-03-22 21:35:00,38.5,29.6,29.89,ESE,105,2.0,5.0,70,0.00,,,0.00,VWS V14.00,2013-03-23 01:35:00,
2013-03-22 21:40:00,38.4,29.5,29.89,ESE,112,4.0,4.0,70,0.00,,,0.00,VWS V14.00,2013-03-23 01:40:00,
2013-03-22 21:45:00,38.4,29.5,29.89,ESE,108,3.0,6.0,70,0.00,,,0.00,VWS V14.00,2013-03-23 01:45:00,
2013-03-22 21:50:00,38.4,29.5,29.89,SE,141,5.0,7.0,70,0.00,,,0.00,VWS V14.00,2013-03-23 01:50:00,
2013-03-22 21:55:00,38.4,29.1,29.88,SW,221,2.0,8.0,69,0.00,,,0.00,VWS V14.00,2013-03-23 01:55:00,
2013-03-22 22:00:00,38.4,29.1,29.88,ESE,111,3.0,8.0,69,0.00,,,0.00,VWS V14.00,2013-03-23 02:00:00,
2013-03-22 22:05:00,38.4,29.1,29.89,SSE,164,2.0,8.0,69,0.00,,,0.00,VWS V14.00,2013-03-23 02:05:00,
2013-03-22 22:10:00,38.4,29.5,29.89,SSE,159,4.0,7.0,70,0.00,,,0.00,VWS V14.00,2013-03-23 02:10:00,
2013-03-22 22:15:00,38.4,29.5,29.89,ESE,108,4.0,8.0,70,0.00,,,0.00,VWS V14.00,2013-03-23 02:15:00,
2013-03-22 22:20:00,38.3,29.7,29.88,ESE,105,7.0,9.0,71,0.00,,,0.00,VWS V14.00,2013-03-23 02:20:00,
2013-03-22 22:25:00,38.3,29.7,29.88,SE,143,6.0,9.0,71,0.00,,,0.00,VWS V14.00,2013-03-23 02:25:00,
2013-03-22 22:30:00,38.3,29.4,29.89,SE,128,3.0,9.0,70,0.00,,,0.00,VWS V14.00,2013-03-23 02:30:00,
2013-03-22 22:35:00,38.2,29.3,29.88,SSE,150,4.0,9.0,70,0.00,,,0.00,VWS V14.00,2013-03-23 02:35:00,
2013-03-22 22:40:00,38.1,29.5,29.88,South,179,3.0,5.0,71,0.00,,,0.00,VWS V14.00,2013-03-23 02:40:00,
2013-03-22 22:45:00,38.1,30.2,29.89,SE,145,3.0,7.0,73,0.00,,,0.00,VWS V14.00,2013-03-23 02:45:00,
2013-03-22 22:50:00,38.3,30.4,29.88,SE,126,4.0,8.0,73,0.00,,,0.00,VWS V14.00,2013-03-23 02:50:00,
2013-03-22 22:55:00,38.3,30.4,29.89,SE,134,2.0,8.0,73,0.00,,,0.00,VWS V14.00,2013-03-23 02:55:00,
2013-03-22 23:00:00,38.1,30.2,29.88,South,174,4.0,8.0,73,0.00,,,0.00,VWS V14.00,2013-03-23 03:00:00,
2013-03-22 23:05:00,38.2,30.7,29.88,ESE,105,6.0,11.0,74,0.00,,,0.00,VWS V14.00,2013-03-23 03:05:00,
2013-03-22 23:10:00,38.3,30.4,29.89,East,101,3.0,8.0,73,0.00,,,0.00,VWS V14.00,2013-03-23 03:10:00,
2013-03-22 23:15:00,38.4,30.5,29.89,SSE,148,4.0,8.0,73,0.00,,,0.00,VWS V14.00,2013-03-23 03:15:00,
2013-03-22 23:20:00,38.4,30.2,29.88,South,174,3.0,11.0,72,0.00,,,0.00,VWS V14.00,2013-03-23 03:20:00,
2013-03-22 23:25:00,38.5,30.3,29.88,SE,124,7.0,11.0,72,0.00,,,0.00,VWS V14.00,2013-03-23 03:25:00,
2013-03-22 23:30:00,38.6,30.4,29.87,SE,134,8.0,15.0,72,0.00,,,0.00,VWS V14.00,2013-03-23 03:30:00,
2013-03-22 23:35:00,38.8,30.6,29.88,ESE,118,1.0,15.0,72,0.00,,,0.00,VWS V14.00,2013-03-23 03:35:00,
2013-03-22 23:40:00,38.7,30.5,29.88,ENE,75,11.0,12.0,72,0.00,,,0.00,VWS V14.00,2013-03-23 03:40:00,
2013-03-22 23:45:00,38.8,30.6,29.88,ESE,117,6.0,12.0,72,0.00,,,0.00,VWS V14.00,2013-03-23 03:45:00,
2013-03-22 23:50:00,38.8,30.6,29.87,SSW,198,5.0,12.0,72,0.00,,,0.00,VWS V14.00,2013-03-23 03:50:00,
2013-03-22 23:55:00,38.7,30.1,29.86,SE,131,3.0,12.0,71,0.00,,,0.00,VWS V14.00,2013-03-23 03:55:00,